Time,TemperatureF,DewpointF,PressureIn,WindDirection,WindDirectionDegrees,WindSpeedMPH,WindSpeedGustMPH,Humidity,HourlyPrecipIn,Conditions,Clouds,dailyrainin,SoftwareType,DateUTC
2013-01-06 00:00:00,33.5,27.4,30.16,WSW,239,4.0,7.0,78,0.00,,OVC070,0.01,VWS V14.01,2013-01-06 05:00:00,
2013-01-06 00:01:00,33.6,27.5,30.16,SW,233,3.0,7.0,78,0.00,,OVC070,0.01,VWS V14.01,2013-01-06 05:01:00,
2013-01-06 00:05:00,33.6,27.5,30.16,SW,223,3.0,7.0,78,0.00,,OVC070,0.00,VWS V14.01,2013-01-06 05:05:00,
2013-01-06 00:07:00,33.6,27.5,30.16,SW,236,4.0,7.0,78,0.00,,OVC070,0.00,VWS V14.01,2013-01-06 05:07:00,
2013-01-06 00:09:00,33.6,27.5,30.16,WSW,238,3.0,7.0,78,0.00,,OVC070,0.00,VWS V14.01,2013-01-06 05:09:00,
2013-01-06 00:14:00,33.5,27.4,30.16,SW,236,3.0,7.0,78,0.00,,OVC070,0.00,VWS V14.01,2013-01-06 05:14:00,
2013-01-06 00:19:00,33.5,27.4,30.16,SW,234,2.0,7.0,78,0.00,,OVC070,0.00,VWS V14.01,2013-01-06 05:19:00,
2013-01-06 00:24:00,33.6,27.5,30.16,SW,231,2.0,7.0,78,0.00,,OVC070,0.00,VWS V14.01,2013-01-06 05:24:00,
2013-01-06 00:29:00,33.6,27.5,30.16,SW,233,2.0,7.0,78,0.00,,OVC070,0.00,VWS V14.01,2013-01-06 05:29:00,
2013-01-06 00:34:00,33.6,27.5,30.16,SW,230,2.0,5.0,78,0.00,,OVC070,0.00,VWS V14.01,2013-01-06 05:34:00,
2013-01-06 00:39:00,33.5,27.4,30.15,SW,224,2.0,5.0,78,0.00,,OVC070,0.00,VWS V14.01,2013-01-06 05:39:00,
2013-01-06 00:44:00,33.6,27.5,30.15,SSW,201,3.0,5.0,78,0.00,,OVC070,0.00,VWS V14.01,2013-01-06 05:44:00,
2013-01-06 00:49:00,33.6,27.5,30.15,South,191,6.0,6.0,78,0.00,,OVC070,0.00,VWS V14.01,2013-01-06 05:49:00,
2013-01-06 00:54:00,33.6,27.5,30.15,SSW,213,3.0,6.0,78,0.00,,OVC070,0.00,VWS V14.01,2013-01-06 05:54:00,
2013-01-06 00:59:00,33.5,27.7,30.15,SSW,203,2.0,6.0,79,0.00,,OVC070,0.00,VWS V14.01,2013-01-06 05:59:00,
2013-01-06 01:04:00,33.4,27.6,30.14,SSW,198,4.0,5.0,79,0.00,,OVC065,0.00,VWS V14.01,2013-01-06 06:04:00,
2013-01-06 01:09:00,33.4,27.6,30.14,South,185,3.0,5.0,79,0.00,,OVC065,0.00,VWS V14.01,2013-01-06 06:09:00,
2013-01-06 01:14:00,33.2,27.4,30.14,South,189,3.0,5.0,79,0.00,,OVC065,0.00,VWS V14.01,2013-01-06 06:14:00,
2013-01-06 01:19:00,33.0,27.5,30.14,SSW,198,2.0,5.0,80,0.00,,OVC065,0.00,VWS V14.01,2013-01-06 06:19:00,
2013-01-06 01:24:00,32.8,27.6,30.14,South,182,4.0,6.0,81,0.00,,OVC065,0.00,VWS V14.01,2013-01-06 06:24:00,
2013-01-06 01:29:00,32.6,27.4,30.14,South,180,4.0,6.0,81,0.00,,OVC065,0.00,VWS V14.01,2013-01-06 06:29:00,
2013-01-06 01:35:00,32.6,27.4,30.14,SSW,199,0.0,3.0,81,0.00,,OVC065,0.00,VWS V14.01,2013-01-06 06:35:00,
2013-01-06 01:40:00,32.5,27.6,30.13,SSW,201,1.0,3.0,82,0.00,,OVC065,0.00,VWS V14.01,2013-01-06 06:40:00,
2013-01-06 01:45:00,32.4,27.5,30.14,SSW,209,2.0,3.0,82,0.00,,OVC065,0.00,VWS V14.01,2013-01-06 06:45:00,
2013-01-06 01:50:00,32.7,27.5,30.14,SSW,209,2.0,6.0,81,0.00,,OVC065,0.00,VWS V14.01,2013-01-06 06:50:00,
2013-01-06 01:55:00,33.0,27.8,30.13,SSW,209,2.0,6.0,81,0.00,,OVC065,0.00,VWS V14.01,2013-01-06 06:55:00,
2013-01-06 02:00:00,33.1,27.9,30.13,SW,214,3.0,6.0,81,0.00,,OVC055,0.00,VWS V14.01,2013-01-06 07:00:00,
2013-01-06 02:05:00,33.1,27.9,30.13,SSW,209,3.0,4.0,81,0.00,,OVC055,0.00,VWS V14.01,2013-01-06 07:05:00,
2013-01-06 02:10:00,33.0,27.8,30.13,SW,227,4.0,4.0,81,0.00,,OVC055,0.00,VWS V14.01,2013-01-06 07:10:00,
2013-01-06 02:15:00,33.1,27.9,30.13,SSW,212,3.0,4.0,81,0.00,,OVC055,0.00,VWS V14.01,2013-01-06 07:15:00,
2013-01-06 02:20:00,33.3,28.1,30.13,SSW,209,3.0,6.0,81,0.00,,OVC055,0.00,VWS V14.01,2013-01-06 07:20:00,
2013-01-06 02:25:00,33.3,28.1,30.14,SSW,209,2.0,6.0,81,0.00,,OVC055,0.00,VWS V14.01,2013-01-06 07:25:00,
2013-01-06 02:30:00,33.3,28.1,30.13,SW,234,3.0,6.0,81,0.00,,OVC055,0.00,VWS V14.01,2013-01-06 07:30:00,
2013-01-06 02:35:00,33.3,28.1,30.13,SW,226,3.0,7.0,81,0.00,,OVC055,0.00,VWS V14.01,2013-01-06 07:35:00,
2013-01-06 02:40:00,33.4,28.2,30.13,SW,227,4.0,7.0,81,0.00,,OVC055,0.00,VWS V14.01,2013-01-06 07:40:00,
2013-01-06 02:46:00,33.4,28.2,30.13,SSW,202,7.0,7.0,81,0.00,,OVC055,0.00,VWS V14.01,2013-01-06 07:46:00,
2013-01-06 02:51:00,33.4,28.2,30.12,SSW,210,4.0,7.0,81,0.00,,OVC055,0.00,VWS V14.01,2013-01-06 07:51:00,
2013-01-06 02:56:00,33.4,28.2,30.12,SW,223,3.0,7.0,81,0.00,,OVC055,0.00,VWS V14.01,2013-01-06 07:56:00,
2013-01-06 03:01:00,33.3,28.1,30.12,SSW,196,4.0,7.0,81,0.00,,OVC047,0.00,VWS V14.01,2013-01-06 08:01:00,
2013-01-06 03:06:00,33.3,28.1,30.12,South,190,3.0,6.0,81,0.00,,OVC047,0.00,VWS V14.01,2013-01-06 08:06:00,
2013-01-06 03:11:00,33.2,28.3,30.12,SW,220,3.0,7.0,82,0.00,,OVC047,0.00,VWS V14.01,2013-01-06 08:11:00,
2013-01-06 03:16:00,33.3,28.1,30.12,SSW,202,5.0,7.0,81,0.00,,OVC047,0.00,VWS V14.01,2013-01-06 08:16:00,
2013-01-06 03:21:00,33.4,28.2,30.11,SW,221,3.0,7.0,81,0.00,,OVC047,0.00,VWS V14.01,2013-01-06 08:21:00,
2013-01-06 03:26:00,33.3,28.4,30.11,SW,226,3.0,8.0,82,0.00,,OVC047,0.00,VWS V14.01,2013-01-06 08:26:00,
2013-01-06 03:31:00,33.2,28.3,30.11,SSW,202,2.0,8.0,82,0.00,,OVC047,0.00,VWS V14.01,2013-01-06 08:31:00,
2013-01-06 03:36:00,33.1,28.2,30.11,SW,215,4.0,7.0,82,0.00,,OVC047,0.00,VWS V14.01,2013-01-06 08:36:00,
2013-01-06 03:41:00,33.3,28.4,30.10,SSW,202,2.0,8.0,82,0.00,,OVC047,0.00,VWS V14.01,2013-01-06 08:41:00,
2013-01-06 03:46:00,33.4,28.2,30.10,SSW,213,4.0,8.0,81,0.00,,OVC047,0.00,VWS V14.01,2013-01-06 08:46:00,
2013-01-06 03:51:00,33.4,28.5,30.10,SW,217,3.0,8.0,82,0.00,,OVC047,0.00,VWS V14.01,2013-01-06 08:51:00,
2013-01-06 03:56:00,33.3,28.4,30.10,SW,217,3.0,8.0,82,0.00,,OVC047,0.00,VWS V14.01,2013-01-06 08:56:00,
2013-01-06 04:02:00,33.3,28.4,30.10,SSW,202,5.0,5.0,82,0.00,,OVC080,0.00,VWS V14.01,2013-01-06 09:02:00,
2013-01-06 04:07:00,33.3,28.4,30.10,SSW,197,5.0,7.0,82,0.00,,OVC080,0.00,VWS V14.01,2013-01-06 09:07:00,
2013-01-06 04:12:00,33.3,28.4,30.10,SSW,211,3.0,7.0,82,0.00,,OVC080,0.00,VWS V14.01,2013-01-06 09:12:00,
2013-01-06 04:17:00,33.3,28.4,30.10,SSW,206,3.0,8.0,82,0.00,,OVC080,0.00,VWS V14.01,2013-01-06 09:17:00,
2013-01-06 04:22:00,33.3,28.4,30.10,SSW,194,3.0,8.0,82,0.00,,OVC080,0.00,VWS V14.01,2013-01-06 09:22:00,
2013-01-06 04:27:00,33.3,28.4,30.09,SSW,207,3.0,8.0,82,0.00,,OVC080,0.00,VWS V14.01,2013-01-06 09:27:00,
2013-01-06 04:32:00,33.2,28.3,30.09,SSW,205,2.0,3.0,82,0.00,,OVC080,0.00,VWS V14.01,2013-01-06 09:32:00,
2013-01-06 04:37:00,33.2,28.3,30.09,SSW,207,3.0,5.0,82,0.00,,OVC080,0.00,VWS V14.01,2013-01-06 09:37:00,
2013-01-06 04:42:00,33.3,28.4,30.09,SSW,194,3.0,8.0,82,0.00,,OVC080,0.00,VWS V14.01,2013-01-06 09:42:00,
2013-01-06 04:47:00,33.3,28.4,30.08,SW,224,4.0,8.0,82,0.00,,OVC080,0.00,VWS V14.01,2013-01-06 09:47:00,
2013-01-06 04:52:00,33.2,28.3,30.08,SW,230,4.0,8.0,82,0.00,,OVC080,0.00,VWS V14.01,2013-01-06 09:52:00,
2013-01-06 04:57:00,33.2,28.3,30.08,SSW,211,2.0,8.0,82,0.00,,OVC080,0.00,VWS V14.01,2013-01-06 09:57:00,
2013-01-06 05:02:00,33.2,28.6,30.08,SW,234,4.0,4.0,83,0.00,,OVC065,0.00,VWS V14.01,2013-01-06 10:02:00,
2013-01-06 05:07:00,33.2,28.3,30.08,SW,221,5.0,5.0,82,0.00,,OVC065,0.00,VWS V14.01,2013-01-06 10:07:00,
2013-01-06 05:12:00,33.3,28.4,30.08,SW,225,2.0,8.0,82,0.00,,OVC065,0.00,VWS V14.01,2013-01-06 10:12:00,
2013-01-06 05:17:00,33.3,28.4,30.08,SSW,196,4.0,8.0,82,0.00,,OVC065,0.00,VWS V14.01,2013-01-06 10:17:00,
2013-01-06 05:22:00,33.2,28.3,30.07,SW,235,3.0,8.0,82,0.00,,OVC065,0.00,VWS V14.01,2013-01-06 10:22:00,
2013-01-06 05:27:00,33.1,28.2,30.07,South,184,3.0,8.0,82,0.00,,OVC065,0.00,VWS V14.01,2013-01-06 10:27:00,
2013-01-06 05:33:00,33.2,28.3,30.07,SSW,209,5.0,8.0,82,0.00,,OVC065,0.00,VWS V14.01,2013-01-06 10:33:00,
2013-01-06 05:38:00,33.2,28.3,30.07,SSW,207,4.0,9.0,82,0.00,,OVC065,0.00,VWS V14.01,2013-01-06 10:38:00,
2013-01-06 05:43:00,33.2,28.3,30.07,South,180,2.0,9.0,82,0.00,,OVC065,0.00,VWS V14.01,2013-01-06 10:43:00,
2013-01-06 05:48:00,33.0,28.4,30.07,South,189,5.0,9.0,83,0.00,,OVC065,0.00,VWS V14.01,2013-01-06 10:48:00,
2013-01-06 05:53:00,32.8,28.2,30.07,South,191,8.0,9.0,83,0.00,,OVC065,0.00,VWS V14.01,2013-01-06 10:53:00,
2013-01-06 05:58:00,32.8,28.2,30.06,SW,216,2.0,11.0,83,0.00,,OVC065,0.00,VWS V14.01,2013-01-06 10:58:00,
2013-01-06 06:03:00,32.7,28.1,30.06,SW,224,4.0,7.0,83,0.00,,OVC046,0.00,VWS V14.01,2013-01-06 11:03:00,
2013-01-06 06:08:00,32.8,28.2,30.06,SSW,209,5.0,12.0,83,0.00,,OVC046,0.00,VWS V14.01,2013-01-06 11:08:00,
2013-01-06 06:13:00,32.8,27.9,30.06,SSW,202,7.0,12.0,82,0.00,,OVC046,0.00,VWS V14.01,2013-01-06 11:13:00,
2013-01-06 06:18:00,32.8,27.9,30.06,SW,217,2.0,12.0,82,0.00,,OVC046,0.00,VWS V14.01,2013-01-06 11:18:00,
2013-01-06 06:23:00,32.8,27.9,30.06,South,183,4.0,12.0,82,0.00,,OVC046,0.00,VWS V14.01,2013-01-06 11:23:00,
2013-01-06 06:28:00,32.8,28.2,30.06,SW,220,4.0,12.0,83,0.00,,OVC046,0.00,VWS V14.01,2013-01-06 11:28:00,
2013-01-06 06:33:00,32.7,28.1,30.06,South,190,7.0,7.0,83,0.00,,OVC046,0.00,VWS V14.01,2013-01-06 11:33:00,
2013-01-06 06:38:00,32.8,28.2,30.06,SSW,202,5.0,8.0,83,0.00,,OVC046,0.00,VWS V14.01,2013-01-06 11:38:00,
2013-01-06 06:43:00,32.8,28.2,30.06,SW,219,3.0,8.0,83,0.00,,OVC046,0.00,VWS V14.01,2013-01-06 11:43:00,
2013-01-06 06:48:00,32.8,28.2,30.06,South,186,6.0,8.0,83,0.00,,OVC046,0.00,VWS V14.01,2013-01-06 11:48:00,
2013-01-06 06:54:00,32.8,28.2,30.06,South,188,4.0,8.0,83,0.00,,OVC046,0.00,VWS V14.01,2013-01-06 11:54:00,
2013-01-06 06:59:00,32.8,28.2,30.06,South,190,4.0,8.0,83,0.00,,OVC046,0.00,VWS V14.01,2013-01-06 11:59:00,
2013-01-06 07:04:00,32.9,28.3,30.06,SW,215,6.0,8.0,83,0.00,,OVC046,0.00,VWS V14.01,2013-01-06 12:04:00,
2013-01-06 07:09:00,33.0,28.4,30.06,SSW,193,6.0,9.0,83,0.00,,OVC046,0.00,VWS V14.01,2013-01-06 12:09:00,
2013-01-06 07:14:00,33.0,28.4,30.05,SSW,200,4.0,9.0,83,0.00,,OVC046,0.00,VWS V14.01,2013-01-06 12:14:00,
2013-01-06 07:19:00,33.0,28.4,30.05,SSW,211,4.0,9.0,83,0.00,,OVC046,0.00,VWS V14.01,2013-01-06 12:19:00,
2013-01-06 07:24:00,33.0,28.4,30.06,SSW,195,4.0,9.0,83,0.00,,OVC046,0.00,VWS V14.01,2013-01-06 12:24:00,
2013-01-06 07:29:00,33.0,28.4,30.06,SSW,205,3.0,9.0,83,0.00,,OVC046,0.00,VWS V14.01,2013-01-06 12:29:00,
2013-01-06 07:34:00,33.2,28.6,30.05,South,183,4.0,8.0,83,0.00,,OVC046,0.00,VWS V14.01,2013-01-06 12:34:00,
2013-01-06 07:39:00,33.2,28.6,30.05,WSW,244,4.0,9.0,83,0.00,,OVC046,0.00,VWS V14.01,2013-01-06 12:39:00,
2013-01-06 07:44:00,33.2,28.6,30.05,SSW,198,5.0,9.0,83,0.00,,OVC046,0.00,VWS V14.01,2013-01-06 12:44:00,
2013-01-06 07:49:00,33.2,28.6,30.05,SSW,209,5.0,9.0,83,0.00,,OVC046,0.00,VWS V14.01,2013-01-06 12:49:00,
2013-01-06 07:54:00,33.2,28.6,30.05,South,188,3.0,9.0,83,0.00,,OVC046,0.00,VWS V14.01,2013-01-06 12:54:00,
2013-01-06 07:59:00,33.2,28.6,30.05,SSW,207,4.0,9.0,83,0.00,,OVC046,0.00,VWS V14.01,2013-01-06 12:59:00,
2013-01-06 08:04:00,33.2,28.6,30.05,SSW,207,5.0,6.0,83,0.00,,OVC046,0.00,VWS V14.01,2013-01-06 13:04:00,
2013-01-06 08:09:00,33.2,28.6,30.05,SSW,204,2.0,10.0,83,0.00,,OVC046,0.00,VWS V14.01,2013-01-06 13:09:00,
2013-01-06 08:14:00,33.2,28.6,30.05,SSW,204,4.0,10.0,83,0.00,,OVC046,0.00,VWS V14.01,2013-01-06 13:14:00,
2013-01-06 08:19:00,33.2,28.6,30.05,SSW,192,7.0,10.0,83,0.00,,OVC046,0.00,VWS V14.01,2013-01-06 13:19:00,
2013-01-06 08:24:00,33.2,28.6,30.05,South,187,3.0,10.0,83,0.00,,OVC046,0.00,VWS V14.01,2013-01-06 13:24:00,
2013-01-06 08:29:00,33.2,28.6,30.05,SSW,198,7.0,10.0,83,0.00,,OVC046,0.00,VWS V14.01,2013-01-06 13:29:00,
2013-01-06 08:34:00,33.2,28.6,30.06,SSW,212,8.0,10.0,83,0.00,,OVC046,0.00,VWS V14.01,2013-01-06 13:34:00,
2013-01-06 08:40:00,33.3,28.7,30.06,South,178,5.0,10.0,83,0.00,,OVC046,0.00,VWS V14.01,2013-01-06 13:40:00,
2013-01-06 08:45:00,33.3,28.7,30.06,SSW,192,6.0,10.0,83,0.00,,OVC046,0.00,VWS V14.01,2013-01-06 13:45:00,
2013-01-06 08:50:00,33.4,28.8,30.06,SSW,211,5.0,12.0,83,0.00,,OVC046,0.00,VWS V14.01,2013-01-06 13:50:00,
2013-01-06 08:55:00,33.4,28.8,30.06,South,172,3.0,12.0,83,0.00,,OVC046,0.00,VWS V14.01,2013-01-06 13:55:00,
2013-01-06 09:00:00,33.5,28.9,30.06,South,187,6.0,12.0,83,0.00,,OVC070,0.00,VWS V14.01,2013-01-06 14:00:00,
2013-01-06 09:05:00,33.7,29.1,30.06,SW,216,3.0,17.0,83,0.00,,OVC070,0.00,VWS V14.01,2013-01-06 14:05:00,
2013-01-06 09:10:00,33.7,29.1,30.06,SSW,211,5.0,17.0,83,0.00,,OVC070,0.00,VWS V14.01,2013-01-06 14:10:00,
2013-01-06 09:15:00,33.7,29.1,30.06,SSW,198,9.0,17.0,83,0.00,,OVC070,0.00,VWS V14.01,2013-01-06 14:15:00,
2013-01-06 09:20:00,33.7,29.1,30.06,SSW,207,3.0,17.0,83,0.00,,OVC070,0.00,VWS V14.01,2013-01-06 14:20:00,
2013-01-06 09:25:00,33.7,29.1,30.06,South,190,5.0,17.0,83,0.00,,OVC070,0.00,VWS V14.01,2013-01-06 14:25:00,
2013-01-06 09:30:00,33.8,29.2,30.06,South,188,3.0,17.0,83,0.00,,OVC070,0.00,VWS V14.01,2013-01-06 14:30:00,
2013-01-06 09:35:00,33.9,29.3,30.06,SSW,209,4.0,7.0,83,0.00,,OVC070,0.00,VWS V14.01,2013-01-06 14:35:00,
2013-01-06 09:40:00,33.9,29.3,30.06,SSW,196,4.0,7.0,83,0.00,,OVC070,0.00,VWS V14.01,2013-01-06 14:40:00,
2013-01-06 09:45:00,34.1,29.5,30.05,South,191,9.0,9.0,83,0.00,,OVC070,0.00,VWS V14.01,2013-01-06 14:45:00,
2013-01-06 09:50:00,34.2,29.3,30.06,South,174,8.0,9.0,82,0.00,,OVC070,0.00,VWS V14.01,2013-01-06 14:50:00,
2013-01-06 09:55:00,34.3,29.4,30.05,SSW,207,6.0,9.0,82,0.00,,OVC070,0.00,VWS V14.01,2013-01-06 14:55:00,
2013-01-06 10:01:00,34.4,29.5,30.06,SSW,193,7.0,9.0,82,0.00,,OVC060,0.00,VWS V14.01,2013-01-06 15:01:00,
2013-01-06 10:06:00,34.5,29.6,30.06,SSW,202,8.0,10.0,82,0.00,,OVC060,0.00,VWS V14.01,2013-01-06 15:06:00,
2013-01-06 10:11:00,34.6,29.7,30.06,SSW,196,5.0,12.0,82,0.00,,OVC060,0.00,VWS V14.01,2013-01-06 15:11:00,
2013-01-06 10:16:00,34.7,29.8,30.06,SSW,209,8.0,12.0,82,0.00,,OVC060,0.00,VWS V14.01,2013-01-06 15:16:00,
2013-01-06 10:21:00,34.7,29.8,30.06,SW,221,7.0,13.0,82,0.00,,OVC060,0.00,VWS V14.01,2013-01-06 15:21:00,
2013-01-06 10:26:00,34.8,29.9,30.06,South,175,3.0,13.0,82,0.00,,OVC060,0.00,VWS V14.01,2013-01-06 15:26:00,
2013-01-06 10:31:00,34.8,29.9,30.06,SSW,205,7.0,13.0,82,0.00,,OVC060,0.00,VWS V14.01,2013-01-06 15:31:00,
2013-01-06 10:36:00,34.8,29.9,30.06,WSW,238,5.0,7.0,82,0.00,,OVC060,0.00,VWS V14.01,2013-01-06 15:36:00,
2013-01-06 10:41:00,34.9,30.0,30.06,SW,215,3.0,11.0,82,0.00,,OVC060,0.00,VWS V14.01,2013-01-06 15:41:00,
2013-01-06 10:46:00,34.9,30.0,30.06,SW,216,6.0,11.0,82,0.00,,OVC060,0.00,VWS V14.01,2013-01-06 15:46:00,
2013-01-06 10:51:00,35.0,30.1,30.06,South,186,7.0,13.0,82,0.00,,OVC060,0.00,VWS V14.01,2013-01-06 15:51:00,
2013-01-06 10:56:00,35.0,30.1,30.06,SSW,213,4.0,13.0,82,0.00,,OVC060,0.00,VWS V14.01,2013-01-06 15:56:00,
2013-01-06 11:01:00,35.0,30.1,30.06,SSW,212,3.0,6.0,82,0.00,,OVC060,0.00,VWS V14.01,2013-01-06 16:01:00,
2013-01-06 11:06:00,35.1,30.2,30.06,SW,234,3.0,9.0,82,0.00,,OVC060,0.00,VWS V14.01,2013-01-06 16:06:00,
2013-01-06 11:12:00,35.1,30.2,30.06,SW,219,3.0,9.0,82,0.00,,OVC060,0.00,VWS V14.01,2013-01-06 16:12:00,
2013-01-06 11:17:00,35.2,30.3,30.05,SSW,202,6.0,10.0,82,0.00,,OVC060,0.00,VWS V14.01,2013-01-06 16:17:00,
2013-01-06 11:22:00,35.3,30.4,30.05,SW,217,4.0,10.0,82,0.00,,OVC060,0.00,VWS V14.01,2013-01-06 16:22:00,
2013-01-06 11:27:00,35.4,30.5,30.05,SW,217,6.0,10.0,82,0.00,,OVC060,0.00,VWS V14.01,2013-01-06 16:27:00,
2013-01-06 11:32:00,35.4,30.5,30.05,SSW,207,4.0,6.0,82,0.00,,OVC060,0.00,VWS V14.01,2013-01-06 16:32:00,
2013-01-06 11:37:00,35.4,30.5,30.05,West,265,5.0,7.0,82,0.00,,OVC060,0.00,VWS V14.01,2013-01-06 16:37:00,
2013-01-06 11:42:00,35.4,30.5,30.05,SSW,207,4.0,7.0,82,0.00,,OVC060,0.00,VWS V14.01,2013-01-06 16:42:00,
2013-01-06 11:47:00,35.5,30.6,30.04,SW,235,4.0,9.0,82,0.00,,OVC060,0.00,VWS V14.01,2013-01-06 16:47:00,
2013-01-06 11:52:00,35.5,30.6,30.04,SSW,206,2.0,9.0,82,0.00,,OVC060,0.00,VWS V14.01,2013-01-06 16:52:00,
2013-01-06 11:57:00,35.5,30.6,30.04,SW,234,4.0,9.0,82,0.00,,OVC060,0.00,VWS V14.01,2013-01-06 16:57:00,
2013-01-06 12:02:00,35.6,30.7,30.03,SW,231,4.0,7.0,82,0.00,,OVC050,0.00,VWS V14.01,2013-01-06 17:02:00,
2013-01-06 12:07:00,35.6,30.7,30.03,SSW,202,5.0,8.0,82,0.00,,OVC050,0.00,VWS V14.01,2013-01-06 17:07:00,
2013-01-06 12:13:00,35.7,30.8,30.03,SSW,200,5.0,8.0,82,0.00,,OVC050,0.00,VWS V14.01,2013-01-06 17:13:00,
2013-01-06 12:18:00,35.7,30.8,30.02,SW,223,5.0,8.0,82,0.00,,OVC050,0.00,VWS V14.01,2013-01-06 17:18:00,
2013-01-06 12:23:00,35.6,31.0,30.02,SSW,205,4.0,8.0,83,0.00,,OVC050,0.00,VWS V14.01,2013-01-06 17:23:00,
2013-01-06 12:28:00,35.6,30.7,30.02,SW,229,6.0,9.0,82,0.00,,OVC050,0.00,VWS V14.01,2013-01-06 17:28:00,
2013-01-06 12:33:00,35.6,31.0,30.02,SSW,212,4.0,7.0,83,0.00,,OVC050,0.00,VWS V14.01,2013-01-06 17:33:00,
2013-01-06 12:38:00,35.6,31.0,30.02,SW,234,5.0,9.0,83,0.00,,OVC050,0.00,VWS V14.01,2013-01-06 17:38:00,
2013-01-06 12:43:00,35.7,31.0,30.01,SW,235,4.0,9.0,83,0.00,,OVC050,0.00,VWS V14.01,2013-01-06 17:43:00,
2013-01-06 12:48:00,35.7,31.0,30.01,SW,229,5.0,9.0,83,0.00,,OVC050,0.00,VWS V14.01,2013-01-06 17:48:00,
2013-01-06 12:53:00,35.7,31.0,30.01,WSW,238,5.0,9.0,83,0.00,,OVC050,0.00,VWS V14.01,2013-01-06 17:53:00,
2013-01-06 12:58:00,35.8,30.9,30.01,SW,232,3.0,9.0,82,0.00,,OVC050,0.00,VWS V14.01,2013-01-06 17:58:00,
2013-01-06 13:03:00,35.8,31.1,30.01,SW,223,4.0,6.0,83,0.00,,OVC050,0.00,VWS V14.01,2013-01-06 18:03:00,
2013-01-06 13:08:00,35.7,31.0,30.00,SW,219,4.0,8.0,83,0.00,,OVC050,0.00,VWS V14.01,2013-01-06 18:08:00,
2013-01-06 13:14:00,35.7,31.0,30.00,WSW,243,4.0,8.0,83,0.00,,OVC050,0.00,VWS V14.01,2013-01-06 18:14:00,
2013-01-06 13:19:00,35.7,31.0,30.00,WSW,244,5.0,8.0,83,0.00,,OVC050,0.00,VWS V14.01,2013-01-06 18:19:00,
2013-01-06 13:24:00,35.6,31.2,30.00,WSW,252,5.0,8.0,84,0.00,,OVC050,0.00,VWS V14.01,2013-01-06 18:24:00,
2013-01-06 13:29:00,35.6,31.2,30.00,SW,235,5.0,8.0,84,0.00,,OVC050,0.00,VWS V14.01,2013-01-06 18:29:00,
2013-01-06 13:34:00,35.7,31.4,30.00,WSW,238,5.0,5.0,84,0.00,,OVC050,0.00,VWS V14.01,2013-01-06 18:34:00,
2013-01-06 13:39:00,35.7,31.4,30.00,SW,234,4.0,7.0,84,0.00,,OVC050,0.00,VWS V14.01,2013-01-06 18:39:00,
2013-01-06 13:44:00,35.7,31.4,30.00,SSW,204,6.0,7.0,84,0.00,,OVC050,0.00,VWS V14.01,2013-01-06 18:44:00,
2013-01-06 13:49:00,35.8,31.5,30.00,West,261,4.0,8.0,84,0.00,,OVC050,0.00,VWS V14.01,2013-01-06 18:49:00,
2013-01-06 13:54:00,35.8,31.5,30.00,SW,221,2.0,8.0,84,0.00,,OVC050,0.00,VWS V14.01,2013-01-06 18:54:00,
2013-01-06 13:59:00,35.8,31.5,30.00,SW,225,2.0,8.0,84,0.00,,OVC021,0.00,VWS V14.01,2013-01-06 18:59:00,
2013-01-06 14:04:00,35.7,31.4,30.00,SW,221,2.0,5.0,84,0.00,,OVC021,0.00,VWS V14.01,2013-01-06 19:04:00,
2013-01-06 14:10:00,35.7,31.4,30.01,SW,229,4.0,5.0,84,0.00,,OVC021,0.00,VWS V14.01,2013-01-06 19:10:00,
2013-01-06 14:15:00,35.7,31.4,30.01,SW,232,2.0,5.0,84,0.00,,OVC021,0.00,VWS V14.01,2013-01-06 19:15:00,
2013-01-06 14:20:00,35.7,31.4,30.01,SSW,207,2.0,6.0,84,0.00,,OVC021,0.00,VWS V14.01,2013-01-06 19:20:00,
2013-01-06 14:25:00,35.8,31.5,30.01,SW,217,3.0,6.0,84,0.00,,OVC021,0.00,VWS V14.01,2013-01-06 19:25:00,
2013-01-06 14:30:00,35.7,31.4,30.01,SW,225,3.0,6.0,84,0.00,,OVC021,0.00,VWS V14.01,2013-01-06 19:30:00,
2013-01-06 14:35:00,35.7,31.4,30.02,WSW,244,6.0,11.0,84,0.00,,OVC021,0.00,VWS V14.01,2013-01-06 19:35:00,
2013-01-06 14:40:00,35.7,31.4,30.02,SW,236,2.0,11.0,84,0.00,,OVC021,0.00,VWS V14.01,2013-01-06 19:40:00,
2013-01-06 14:45:00,35.7,31.6,30.02,WSW,242,5.0,11.0,85,0.00,,OVC021,0.00,VWS V14.01,2013-01-06 19:45:00,
2013-01-06 14:51:00,35.7,31.6,30.02,WSW,240,4.0,11.0,85,0.00,,OVC021,0.00,VWS V14.01,2013-01-06 19:51:00,
2013-01-06 14:56:00,35.6,31.5,30.02,WSW,243,5.0,11.0,85,0.00,,OVC021,0.00,VWS V14.01,2013-01-06 19:56:00,
2013-01-06 15:02:00,35.6,31.5,30.02,WSW,239,5.0,9.0,85,0.00,,OVC027,0.00,VWS V14.01,2013-01-06 20:02:00,
2013-01-06 15:10:00,35.5,31.7,30.02,WSW,238,6.0,9.0,86,0.00,,OVC027,0.00,VWS V14.01,2013-01-06 20:10:00,
2013-01-06 15:12:00,35.5,31.7,30.03,WSW,237,6.0,9.0,86,0.00,,OVC027,0.00,VWS V14.01,2013-01-06 20:12:00,
2013-01-06 15:13:00,35.5,31.7,30.03,WSW,251,7.0,9.0,86,0.00,,OVC027,0.00,VWS V14.01,2013-01-06 20:13:00,
2013-01-06 15:18:00,35.3,31.8,30.03,WSW,250,6.0,10.0,87,0.00,,OVC027,0.00,VWS V14.01,2013-01-06 20:18:00,
2013-01-06 15:23:00,35.3,31.8,30.03,WSW,242,7.0,10.0,87,0.00,,OVC027,0.00,VWS V14.01,2013-01-06 20:23:00,
2013-01-06 15:28:00,35.2,32.0,30.03,WSW,237,4.0,10.0,88,0.00,,OVC027,0.00,VWS V14.01,2013-01-06 20:28:00,
2013-01-06 15:33:00,35.1,31.9,30.04,WSW,256,5.0,6.0,88,0.00,,OVC027,0.00,VWS V14.01,2013-01-06 20:33:00,
2013-01-06 15:39:00,35.1,31.9,30.04,WSW,248,6.0,7.0,88,0.00,,OVC027,0.00,VWS V14.01,2013-01-06 20:39:00,
2013-01-06 15:44:00,35.2,32.0,30.04,WSW,250,6.0,7.0,88,0.00,,OVC027,0.00,VWS V14.01,2013-01-06 20:44:00,
2013-01-06 15:49:00,35.1,31.9,30.04,West,264,5.0,8.0,88,0.00,,OVC027,0.00,VWS V14.01,2013-01-06 20:49:00,
2013-01-06 15:55:00,35.1,31.9,30.04,West,268,9.0,12.0,88,0.00,,OVC027,0.00,VWS V14.01,2013-01-06 20:55:00,
2013-01-06 16:00:00,35.1,31.9,30.04,West,276,6.0,12.0,88,0.00,,OVC021,0.00,VWS V14.01,2013-01-06 21:00:00,
2013-01-06 16:03:00,35.1,31.9,30.04,WSW,254,6.0,10.0,88,0.00,,OVC021,0.00,VWS V14.01,2013-01-06 21:03:00,
2013-01-06 16:09:00,35.1,31.9,30.05,SW,236,4.0,10.0,88,0.00,,OVC021,0.00,VWS V14.01,2013-01-06 21:09:00,
2013-01-06 16:14:00,35.1,31.9,30.05,West,277,9.0,10.0,88,0.00,,OVC021,0.00,VWS V14.01,2013-01-06 21:14:00,
2013-01-06 16:19:00,34.9,32.0,30.05,West,259,5.0,11.0,89,0.00,,OVC021,0.00,VWS V14.01,2013-01-06 21:19:00,
2013-01-06 16:24:00,34.8,31.9,30.05,WNW,285,7.0,12.0,89,0.00,,OVC021,0.00,VWS V14.01,2013-01-06 21:24:00,
2013-01-06 16:29:00,34.6,31.7,30.06,West,261,8.0,12.0,89,0.00,,OVC021,0.00,VWS V14.01,2013-01-06 21:29:00,
2013-01-06 16:34:00,34.6,32.0,30.06,WSW,252,7.0,11.0,90,0.00,,OVC021,0.00,VWS V14.01,2013-01-06 21:34:00,
2013-01-06 16:39:00,34.5,31.9,30.06,West,267,7.0,11.0,90,0.00,,OVC021,0.00,VWS V14.01,2013-01-06 21:39:00,
2013-01-06 16:44:00,34.4,31.8,30.06,WSW,250,6.0,11.0,90,0.00,,OVC021,0.00,VWS V14.01,2013-01-06 21:44:00,
2013-01-06 16:49:00,34.4,31.8,30.07,West,272,6.0,11.0,90,0.00,,OVC021,0.00,VWS V14.01,2013-01-06 21:49:00,
2013-01-06 16:54:00,34.3,32.0,30.07,West,269,5.0,11.0,91,0.00,,OVC021,0.00,VWS V14.01,2013-01-06 21:54:00,
2013-01-06 16:59:00,34.4,31.8,30.07,West,265,8.0,11.0,90,0.00,,,0.00,VWS V14.01,2013-01-06 21:59:00,
2013-01-06 17:04:00,34.5,31.9,30.07,West,261,6.0,8.0,90,0.00,,,0.00,VWS V14.01,2013-01-06 22:04:00,
2013-01-06 17:09:00,34.5,31.9,30.08,West,271,7.0,8.0,90,0.00,,,0.00,VWS V14.01,2013-01-06 22:09:00,
2013-01-06 17:14:00,34.5,31.6,30.08,West,266,5.0,9.0,89,0.00,,,0.00,VWS V14.01,2013-01-06 22:14:00,
2013-01-06 17:19:00,34.5,31.6,30.08,West,267,5.0,9.0,89,0.00,,,0.00,VWS V14.01,2013-01-06 22:19:00,
2013-01-06 17:25:00,34.5,31.6,30.08,West,279,6.0,9.0,89,0.00,,,0.00,VWS V14.01,2013-01-06 22:25:00,
2013-01-06 17:30:00,34.4,31.5,30.09,West,259,10.0,10.0,89,0.00,,,0.00,VWS V14.01,2013-01-06 22:30:00,
2013-01-06 17:35:00,34.0,31.4,30.09,WSW,254,9.0,18.0,90,0.00,,,0.00,VWS V14.01,2013-01-06 22:35:00,
2013-01-06 17:40:00,33.3,31.0,30.09,West,273,8.0,18.0,91,0.00,,,0.00,VWS V14.01,2013-01-06 22:40:00,
2013-01-06 17:45:00,33.1,31.0,30.09,West,280,8.0,18.0,92,0.00,,,0.00,VWS V14.01,2013-01-06 22:45:00,
2013-01-06 17:50:00,33.0,30.7,30.10,WSW,257,8.0,18.0,91,0.00,,,0.00,VWS V14.01,2013-01-06 22:50:00,
2013-01-06 17:55:00,33.0,30.7,30.10,WNW,288,10.0,18.0,91,0.00,,,0.00,VWS V14.01,2013-01-06 22:55:00,
2013-01-06 18:00:00,32.9,30.3,30.10,West,265,8.0,18.0,90,0.00,,OVC020,0.00,VWS V14.01,2013-01-06 23:00:00,
2013-01-06 18:05:00,32.9,30.3,30.11,West,263,7.0,10.0,90,0.00,,OVC020,0.00,VWS V14.01,2013-01-06 23:05:00,
2013-01-06 18:10:00,32.9,30.0,30.11,NW,306,9.0,12.0,89,0.00,,OVC020,0.00,VWS V14.01,2013-01-06 23:10:00,
2013-01-06 18:15:00,33.0,30.1,30.11,WSW,257,6.0,13.0,89,0.00,,OVC020,0.00,VWS V14.01,2013-01-06 23:15:00,
2013-01-06 18:20:00,33.0,30.1,30.11,West,269,8.0,13.0,89,0.00,,OVC020,0.00,VWS V14.01,2013-01-06 23:20:00,
2013-01-06 18:26:00,33.0,30.1,30.11,West,274,8.0,13.0,89,0.00,,OVC020,0.00,VWS V14.01,2013-01-06 23:26:00,
2013-01-06 18:31:00,33.0,29.8,30.12,West,269,7.0,13.0,88,0.00,,OVC020,0.00,VWS V14.01,2013-01-06 23:31:00,
2013-01-06 18:36:00,33.0,29.8,30.13,WSW,249,5.0,12.0,88,0.00,,OVC020,0.00,VWS V14.01,2013-01-06 23:36:00,
2013-01-06 18:41:00,32.9,29.7,30.13,West,272,5.0,12.0,88,0.00,,OVC020,0.00,VWS V14.01,2013-01-06 23:41:00,
2013-01-06 18:46:00,32.9,29.7,30.13,WNW,285,7.0,12.0,88,0.00,,OVC020,0.00,VWS V14.01,2013-01-06 23:46:00,
2013-01-06 18:51:00,32.9,29.5,30.13,West,263,11.0,14.0,87,0.00,,OVC020,0.00,VWS V14.01,2013-01-06 23:51:00,
2013-01-06 18:56:00,32.8,28.8,30.14,West,279,8.0,14.0,85,0.00,,OVC020,0.00,VWS V14.01,2013-01-06 23:56:00,
2013-01-06 19:01:00,32.7,28.1,30.14,West,275,7.0,15.0,83,0.00,,OVC036,0.00,VWS V14.01,2013-01-07 00:01:00,
2013-01-06 19:06:00,32.6,28.0,30.14,West,263,6.0,14.0,83,0.00,,OVC036,0.00,VWS V14.01,2013-01-07 00:06:00,
2013-01-06 19:11:00,32.5,27.9,30.14,West,273,9.0,14.0,83,0.00,,OVC036,0.00,VWS V14.01,2013-01-07 00:11:00,
2013-01-06 19:16:00,32.3,27.7,30.15,West,278,9.0,14.0,83,0.00,,OVC036,0.00,VWS V14.01,2013-01-07 00:16:00,
2013-01-06 19:21:00,32.1,27.5,30.15,West,267,7.0,17.0,83,0.00,,OVC036,0.00,VWS V14.01,2013-01-07 00:21:00,
2013-01-06 19:26:00,31.7,27.4,30.16,WNW,288,8.0,17.0,84,0.00,,OVC036,0.00,VWS V14.01,2013-01-07 00:26:00,
2013-01-06 19:31:00,31.5,27.2,30.16,WNW,296,4.0,6.0,84,0.00,,OVC036,0.00,VWS V14.01,2013-01-07 00:31:00,
2013-01-06 19:37:00,31.2,27.2,30.16,West,273,9.0,13.0,85,0.00,,OVC036,0.00,VWS V14.01,2013-01-07 00:37:00,
2013-01-06 19:45:00,30.9,27.5,30.17,WSW,254,8.0,9.0,87,0.00,,,0.00,VWS V14.01,2013-01-07 00:45:00,
2013-01-06 19:50:00,30.8,27.4,30.17,West,259,5.0,14.0,87,0.00,,,0.00,VWS V14.01,2013-01-07 00:50:00,
2013-01-06 19:55:00,30.8,27.4,30.17,WNW,282,4.0,14.0,87,0.00,,,0.00,VWS V14.01,2013-01-07 00:55:00,
2013-01-06 20:00:00,30.7,27.3,30.17,NW,306,6.0,14.0,87,0.00,,OVC036,0.00,VWS V14.01,2013-01-07 01:00:00,
2013-01-06 20:05:00,30.7,27.3,30.17,WNW,286,9.0,9.0,87,0.00,,OVC036,0.00,VWS V14.01,2013-01-07 01:05:00,
2013-01-06 20:10:00,30.8,27.4,30.18,West,277,6.0,9.0,87,0.00,,OVC036,0.00,VWS V14.01,2013-01-07 01:10:00,
2013-01-06 20:15:00,30.7,27.6,30.18,West,263,6.0,10.0,88,0.00,,OVC036,0.00,VWS V14.01,2013-01-07 01:15:00,
2013-01-06 20:20:00,30.6,27.5,30.18,NW,313,13.0,13.0,88,0.00,,OVC036,0.00,VWS V14.01,2013-01-07 01:20:00,
2013-01-06 20:25:00,30.6,27.5,30.18,West,259,6.0,16.0,88,0.00,,OVC036,0.00,VWS V14.01,2013-01-07 01:25:00,
2013-01-06 20:30:00,30.5,27.4,30.19,WSW,257,4.0,16.0,88,0.00,,OVC036,0.00,VWS V14.01,2013-01-07 01:30:00,
2013-01-06 20:35:00,30.5,27.4,30.19,WNW,288,4.0,7.0,88,0.00,,OVC036,0.00,VWS V14.01,2013-01-07 01:35:00,
2013-01-06 20:40:00,30.4,27.3,30.19,West,280,7.0,11.0,88,0.00,,OVC036,0.00,VWS V14.01,2013-01-07 01:40:00,
2013-01-06 20:46:00,30.4,27.3,30.19,West,274,5.0,12.0,88,0.00,,OVC036,0.00,VWS V14.01,2013-01-07 01:46:00,
2013-01-06 20:51:00,30.3,27.2,30.19,West,261,4.0,12.0,88,0.00,,OVC036,0.00,VWS V14.01,2013-01-07 01:51:00,
2013-01-06 20:56:00,30.3,27.2,30.20,WNW,291,5.0,12.0,88,0.00,,OVC036,0.00,VWS V14.01,2013-01-07 01:56:00,
2013-01-06 21:01:00,30.2,27.1,30.20,West,265,6.0,14.0,88,0.00,,,0.00,VWS V14.01,2013-01-07 02:01:00,
2013-01-06 21:06:00,30.2,27.1,30.20,WNW,293,5.0,10.0,88,0.00,,,0.00,VWS V14.01,2013-01-07 02:06:00,
2013-01-06 21:11:00,30.1,27.0,30.20,West,263,10.0,12.0,88,0.00,,,0.00,VWS V14.01,2013-01-07 02:11:00,
2013-01-06 21:16:00,30.1,27.0,30.21,West,266,5.0,14.0,88,0.00,,,0.00,VWS V14.01,2013-01-07 02:16:00,
2013-01-06 21:21:00,30.0,26.9,30.21,NW,308,10.0,14.0,88,0.00,,,0.00,VWS V14.01,2013-01-07 02:21:00,
2013-01-06 21:26:00,29.9,26.8,30.21,NW,320,6.0,14.0,88,0.00,,,0.00,VWS V14.01,2013-01-07 02:26:00,
2013-01-06 21:31:00,29.9,26.5,30.22,West,280,9.0,14.0,87,0.00,,,0.00,VWS V14.01,2013-01-07 02:31:00,
2013-01-06 21:36:00,29.8,26.4,30.22,West,275,7.0,15.0,87,0.00,,,0.00,VWS V14.01,2013-01-07 02:36:00,
2013-01-06 21:41:00,29.8,26.4,30.22,West,260,8.0,15.0,87,0.00,,,0.00,VWS V14.01,2013-01-07 02:41:00,
2013-01-06 21:46:00,29.7,26.6,30.22,West,279,8.0,15.0,88,0.00,,,0.00,VWS V14.01,2013-01-07 02:46:00,
2013-01-06 21:51:00,29.7,26.6,30.22,WNW,284,5.0,15.0,88,0.00,,,0.00,VWS V14.01,2013-01-07 02:51:00,
2013-01-06 21:56:00,29.7,26.6,30.22,WSW,257,5.0,15.0,88,0.00,,,0.00,VWS V14.01,2013-01-07 02:56:00,
2013-01-06 22:01:00,29.7,26.6,30.23,West,263,3.0,15.0,88,0.00,,,0.00,VWS V14.01,2013-01-07 03:01:00,
2013-01-06 22:06:00,29.7,26.6,30.23,West,281,5.0,10.0,88,0.00,,,0.00,VWS V14.01,2013-01-07 03:06:00,
2013-01-06 22:11:00,29.4,26.3,30.23,West,273,7.0,10.0,88,0.00,,,0.00,VWS V14.01,2013-01-07 03:11:00,
2013-01-06 22:16:00,29.3,26.2,30.23,WSW,256,4.0,10.0,88,0.00,,,0.00,VWS V14.01,2013-01-07 03:16:00,
2013-01-06 22:22:00,29.2,26.1,30.23,West,281,7.0,11.0,88,0.00,,,0.00,VWS V14.01,2013-01-07 03:22:00,
2013-01-06 22:27:00,29.2,26.1,30.24,WNW,288,8.0,11.0,88,0.00,,,0.00,VWS V14.01,2013-01-07 03:27:00,
2013-01-06 22:32:00,29.1,26.0,30.24,WSW,258,6.0,6.0,88,0.00,,,0.00,VWS V14.01,2013-01-07 03:32:00,
2013-01-06 22:37:00,29.1,26.0,30.24,West,265,5.0,9.0,88,0.00,,,0.00,VWS V14.01,2013-01-07 03:37:00,
2013-01-06 22:42:00,29.0,26.2,30.25,West,275,3.0,9.0,89,0.00,,,0.00,VWS V14.01,2013-01-07 03:42:00,
2013-01-06 22:47:00,29.0,25.9,30.25,West,275,6.0,9.0,88,0.00,,,0.00,VWS V14.01,2013-01-07 03:47:00,
2013-01-06 22:52:00,29.0,26.2,30.25,West,271,5.0,9.0,89,0.00,,,0.00,VWS V14.01,2013-01-07 03:52:00,
2013-01-06 22:57:00,29.0,26.2,30.25,West,264,3.0,9.0,89,0.00,,,0.00,VWS V14.01,2013-01-07 03:57:00,
2013-01-06 23:02:00,28.9,26.1,30.26,West,274,4.0,6.0,89,0.00,,,0.00,VWS V14.01,2013-01-07 04:02:00,
2013-01-06 23:07:00,28.9,26.1,30.26,WNW,288,5.0,9.0,89,0.00,,,0.00,VWS V14.01,2013-01-07 04:07:00,
2013-01-06 23:12:00,28.8,26.0,30.26,West,277,6.0,9.0,89,0.00,,,0.00,VWS V14.01,2013-01-07 04:12:00,
2013-01-06 23:17:00,28.8,26.0,30.27,West,279,5.0,9.0,89,0.00,,,0.00,VWS V14.01,2013-01-07 04:17:00,
2013-01-06 23:22:00,28.8,26.0,30.27,WSW,256,5.0,9.0,89,0.00,,,0.00,VWS V14.01,2013-01-07 04:22:00,
2013-01-06 23:27:00,28.7,25.9,30.27,West,278,5.0,9.0,89,0.00,,,0.00,VWS V14.01,2013-01-07 04:27:00,
2013-01-06 23:32:00,28.6,25.8,30.28,West,272,3.0,6.0,89,0.00,,,0.00,VWS V14.01,2013-01-07 04:32:00,
2013-01-06 23:37:00,28.5,25.7,30.28,West,270,4.0,7.0,89,0.00,,,0.00,VWS V14.01,2013-01-07 04:37:00,
2013-01-06 23:43:00,28.5,25.7,30.28,West,273,4.0,8.0,89,0.00,,,0.00,VWS V14.01,2013-01-07 04:43:00,
2013-01-06 23:48:00,28.5,25.7,30.28,West,267,5.0,9.0,89,0.00,,,0.00,VWS V14.01,2013-01-07 04:48:00,
2013-01-06 23:53:00,28.5,25.7,30.29,WSW,258,5.0,9.0,89,0.00,,,0.00,VWS V14.01,2013-01-07 04:53:00,
2013-01-06 23:58:00,28.5,25.7,30.29,WNW,294,6.0,9.0,89,0.00,,,0.00,VWS V14.01,2013-01-07 04:58:00,